Location: M?digepalle
(16.1753°N, 80.3496°E)
Time: 08:55:42
(UTC+00:00)

Intelsat 5-2 Rocket - Pass Details

Date: 29 October 2020
Orbit: 344 x 10125 km, 23.6° (Epoch: 27 November)

Event Time Altitude Azimuth Distance (km) Brightness Sun altitude
Rises 13:53:17 0° 265° (W) 6,590 9.7 -25.3°
Reaches altitude 10° 13:59:36 10° 270° (W) 4,120 8.2 -26.8°
Enters shadow 14:07:40 44° 335° (NNW) 1,043 4.2 -28.7°
